[[{"header":{"parameterUnit":"m.s-1","parameterCategory":1,"la1":30.2991,"la2":30.254,"lo1":-89.0895,"lo2":-89.0444,"dy":0.0017,"dx":0.0017,"nx":28,"ny":28,"refTime":"2025-12-23T09:00:00:Z","depth":0,"parameterNumber":2,"parameterNumberName":"U-component_of_WINDS"},"data":[0,0,0,0,0,0,0,0,0,0,0,0,0,0,0,0,0,0,0,0,0,0,0,0,0,0,0,0,0,0,0,0,0,0,0,0,0,0,0,0,0,0,0,0,0,0,0,0,0,0,0,0,0,0,0,0,0,0,-0.1075,-0.1075,0,-0.1073,-0.1073,-0.1073,-0.1041,-0.1041,-0.104,-0.1039,-0.1039,-0.104,-0.1041,0,0,0,0,0,0,0,0,0,0,0,0,0,-0.1054,-0.1055,-0.1075,-0.1075,-0.1075,-0.1073,-0.1073,-0.1073,-0.1041,-0.104,-0.1039,-0.1039,-0.1039,-0.104,-0.1041,0,0,0,0,0,0,0,0,0,0,0,0,0,-0.1059,-0.1055,-0.1075,-0.1059,-0.1058,-0.1073,-0.1073,-0.1073,-0.1042,-0.104,-0.1039,-0.1038,-0.1039,-0.104,-0.1041,-0.1072,0,0,-0.1044,-0.1045,0,0,0,0,0,0,0,0,-0.1059,-0.106,-0.1062,-0.106,-0.1059,-0.1056,-0.1066,-0.1073,-0.1042,-0.1048,-0.1039,-0.1038,-0.1046,-0.1046,-0.1049,-0.1072,-0.1072,-0.1044,-0.1045,-0.1046,-0.1046,0,0,0,0,0,0,0,-0.1058,-0.106,-0.1074,-0.1062,-0.106,-0.1053,-0.1052,-0.1067,-0.1054,-0.1047,-0.1045,-0.1045,-0.1045,-0.1048,-0.1049,-0.1072,-0.1044,-0.1045,-0.1046,-0.1047,-0.1121,-0.1122,0,0,0,0,0,0,-0.106,-0.106,-0.1074,-0.1074,-0.1056,-0.1054,-0.1053,-0.1058,-0.1054,-0.1052,-0.1046,-0.1043,-0.1046,-0.1047,-0.1048,-0.1085,-0.1046,-0.1047,-0.1047,-0.1119,-0.1121,-0.1122,0,0,0,0,0,0,-0.106,-0.1062,-0.1075,-0.1066,-0.1067,-0.1056,-0.1061,-0.1059,-0.1061,-0.1053,-0.105,-0.1051,-0.1045,-0.1047,-0.1066,-0.1084,-0.1047,-0.1048,-0.1118,-0.112,-0.1122,-0.1158,0,0,0,0,0,0,-0.1059,-0.1062,-0.1073,-0.1067,-0.1068,-0.1092,-0.1063,-0.106,-0.1063,-0.106,-0.1057,-0.1055,-0.1045,-0.1065,-0.1067,-0.1085,-0.1049,-0.1116,-0.1119,-0.1121,-0.1155,-0.116,-0.1165,0,0,0,0,0,-0.1059,-0.1084,-0.1074,-0.1076,-0.1082,-0.1093,-0.1094,-0.1081,-0.1065,-0.1076,-0.1071,-0.1055,-0.1082,-0.1067,-0.107,-0.1088,-0.1115,-0.1118,-0.1121,-0.1152,-0.1159,-0.1165,0,0,0,0,0,0,-0.1094,-0.1083,-0.1072,-0.1096,-0.1095,-0.1088,-0.1102,-0.1088,-0.1094,-0.109,-0.1074,-0.1074,-0.1096,-0.1094,-0.1078,-0.1118,-0.1096,-0.1099,-0.1119,-0.1125,-0.113,-0.1131,-0.105,0,0,0,0,0,-0.1104,-0.1114,-0.1104,-0.1126,-0.1126,-0.1114,-0.1119,-0.1108,-0.1108,-0.1108,-0.1103,-0.1104,-0.1113,-0.1119,-0.1126,-0.1154,-0.1153,-0.1168,-0.1173,-0.1178,-0.1181,-0.1196,-0.1202,-0.1132,-0.1132,-0.1132,0,0,-0.1127,-0.1122,-0.1129,-0.1133,-0.1132,-0.1142,-0.1115,-0.1127,-0.1135,-0.111,-0.1128,-0.1125,-0.1124,-0.1148,-0.1158,-0.1147,-0.12,-0.1181,-0.1185,-0.1186,-0.1199,-0.1206,-0.1212,-0.1134,-0.1133,-0.1133,0,0,-0.1172,-0.1169,-0.1187,-0.1186,-0.1184,-0.1175,-0.118,-0.1174,-0.117,-0.1188,-0.1169,-0.1178,-0.1193,-0.1194,-0.1196,-0.1241,-0.1227,-0.1243,-0.1272,-0.1286,-0.1292,-0.1297,-0.1313,-0.1319,-0.1247,-0.1247,-0.1247,0,-0.12,-0.1215,-0.1198,-0.1212,-0.1214,-0.1191,-0.1209,-0.1209,-0.121,-0.1213,-0.1199,-0.1217,-0.1215,-0.1239,-0.1249,-0.1252,-0.1257,-0.1244,-0.1292,-0.1297,-0.1301,-0.1316,-0.1323,-0.1249,-0.1249,-0.1248,-0.1248,0,-0.125,-0.126,-0.1275,-0.1275,-0.1279,-0.1295,-0.1281,-0.1288,-0.1276,-0.127,-0.1287,-0.1284,-0.129,-0.1295,-0.1285,-0.1317,-0.131,-0.1295,-0.1272,-0.131,-0.1324,-0.133,-0.1252,-0.1251,-0.1251,-0.125,0,0,-0.1319,-0.1309,-0.1315,-0.1314,-0.1309,-0.1317,-0.1332,-0.1337,-0.1343,-0.1344,-0.1356,-0.1368,-0.1354,-0.1357,-0.1346,-0.1358,-0.1394,-0.1342,-0.1341,-0.1352,-0.143,-0.1442,-0.1449,-0.1384,-0.1385,-0.1386,-0.143,0,-0.1364,-0.1388,-0.1373,-0.1399,-0.1409,-0.1386,-0.1399,-0.1398,-0.1391,-0.1399,-0.1392,-0.1401,-0.1381,-0.1382,-0.1394,-0.1388,-0.141,-0.1384,-0.1397,-0.1397,-0.1398,-0.1456,-0.1469,-0.1511,-0.1435,-0.1436,-0.1437,0,-0.1419,-0.1421,-0.1449,-0.1441,-0.1445,-0.1456,-0.1459,-0.1466,-0.1465,-0.1459,-0.1461,-0.1447,-0.1462,-0.1438,-0.1458,-0.1441,-0.1445,-0.1443,-0.1444,-0.1446,-0.142,-0.146,-0.1524,-0.1531,-0.1446,-0.1445,-0.1444,0,-0.1468,-0.1477,-0.1495,-0.1495,-0.1487,-0.1496,-0.1493,-0.1489,-0.1493,-0.1496,-0.1498,-0.1503,-0.1506,-0.151,-0.1497,-0.1482,-0.1519,-0.1495,-0.1516,-0.1516,-0.1526,-0.1525,-0.1592,-0.1527,-0.1527,-0.1527,-0.1527,0,-0.152,-0.1537,-0.1516,-0.1527,-0.1547,-0.1529,-0.1549,-0.1544,-0.1541,-0.155,-0.1531,-0.1541,-0.1523,-0.1532,-0.1522,-0.154,-0.1541,-0.1538,-0.1535,-0.154,-0.1541,-0.1544,-0.1541,-0.1528,-0.1528,-0.1528,-0.1527,0,-0.1578,-0.1564,-0.1582,-0.1572,-0.157,-0.1585,-0.1577,-0.1587,-0.1578,-0.1591,-0.1593,-0.158,-0.1589,-0.1576,-0.1584,-0.1577,-0.1602,-0.1595,-0.1603,-0.1601,-0.1623,-0.1621,-0.1694,-0.1703,-0.1632,-0.1632,-0.1633,0,-0.1612,-0.1625,-0.1616,-0.1621,-0.1619,-0.1627,-0.163,-0.1613,-0.1617,-0.1615,-0.1626,-0.1632,-0.1637,-0.1651,-0.1643,-0.1649,-0.1642,-0.1667,-0.1643,-0.1647,-0.1643,-0.1643,-0.1644,-0.1672,-0.1673,-0.1674,-0.1675,0,-0.1675,-0.1667,-0.1672,-0.1675,-0.1679,-0.168,-0.168,-0.1685,-0.1667,-0.1673,-0.1681,-0.1684,-0.1691,-0.1698,-0.1701,-0.1699,-0.1684,-0.1682,-0.1687,-0.1693,-0.1697,-0.1696,-0.1617,-0.1681,-0.168,-0.168,-0.1679,-0.1679,-0.1723,-0.1733,-0.1728,-0.1734,-0.1732,-0.1732,-0.1741,-0.1733,-0.1739,-0.1743,-0.1732,-0.1743,-0.174,-0.1742,-0.1741,-0.175,-0.1739,-0.1746,-0.1748,-0.1751,-0.1754,-0.1695,-0.175,-0.175,-0.175,-0.1749,-0.1749,0,-0.1785,-0.1781,-0.1786,-0.1786,-0.1791,-0.1775,-0.1773,-0.1779,-0.1788,-0.1786,-0.179,-0.1799,-0.1805,-0.1797,-0.1802,-0.181,-0.1804,-0.1812,-0.1812,-0.1812,-0.1763,-0.1759,-0.1818,-0.1818,-0.1818,-0.1818,-0.1818,-0.1818,-0.1818,-0.1835,-0.1827,-0.1842,-0.1837,-0.1846,-0.1847,-0.1847,-0.1845,-0.1856,-0.1861,-0.1855,-0.185,-0.1855,-0.186,-0.1857,-0.186,-0.1872,-0.1867,-0.1822,-0.1815,-0.1809,-0.1805,-0.1872,-0.1872,-0.1915,-0.1915,-0.1916]},{"header":{"parameterUnit":"m.s-1","parameterCategory":1,"la1":30.2991,"la2":30.254,"lo1":-89.0895,"lo2":-89.0444,"dy":0.0017,"dx":0.0017,"nx":28,"ny":28,"refTime":"2025-12-23T09:00:00:Z","depth":0,"parameterNumber":3,"parameterNumberName":"V-component_of_WINDS"},"data":[0,0,0,0,0,0,0,0,0,0,0,0,0,0,0,0,0,0,0,0,0,0,0,0,0,0,0,0,0,0,0,0,0,0,0,0,0,0,0,0,0,0,0,0,0,0,0,0,0,0,0,0,0,0,0,0,0,0,-0.9508,-0.9508,0,-0.9538,-0.9539,-0.9539,-0.9528,-0.9528,-0.9527,-0.9526,-0.9557,-0.9559,-0.956,0,0,0,0,0,0,0,0,0,0,0,0,0,-0.944,-0.9441,-0.9508,-0.9508,-0.9509,-0.9538,-0.9539,-0.9539,-0.9528,-0.9528,-0.9527,-0.9526,-0.9557,-0.9559,-0.956,0,0,0,0,0,0,0,0,0,0,0,0,0,-0.947,-0.9442,-0.9508,-0.9507,-0.9507,-0.9538,-0.9539,-0.9539,-0.9529,-0.9528,-0.9527,-0.9526,-0.9556,-0.9559,-0.9561,-0.9595,0,0,-0.9567,-0.9568,0,0,0,0,0,0,0,0,-0.9468,-0.9472,-0.9507,-0.9507,-0.9507,-0.9529,-0.9526,-0.9558,-0.9529,-0.952,-0.9526,-0.9525,-0.9549,-0.9551,-0.9559,-0.9596,-0.9597,-0.9568,-0.9569,-0.957,-0.957,0,0,0,0,0,0,0,-0.9466,-0.9471,-0.952,-0.9507,-0.9508,-0.9505,-0.9508,-0.9532,-0.954,-0.9521,-0.952,-0.9524,-0.9549,-0.9557,-0.956,-0.9598,-0.9568,-0.9569,-0.9571,-0.9572,-0.9665,-0.9666,0,0,0,0,0,0,-0.9464,-0.9469,-0.9519,-0.9521,-0.9485,-0.9507,-0.951,-0.9523,-0.954,-0.9541,-0.9525,-0.9524,-0.9554,-0.9557,-0.9561,-0.9603,-0.957,-0.9572,-0.9573,-0.9663,-0.9665,-0.9666,0,0,0,0,0,0,-0.9463,-0.9469,-0.9518,-0.9495,-0.9501,-0.9509,-0.9523,-0.9524,-0.9533,-0.9543,-0.9544,-0.9532,-0.9553,-0.9558,-0.9587,-0.9603,-0.9573,-0.9575,-0.9662,-0.9664,-0.9665,-0.9685,0,0,0,0,0,0,-0.9461,-0.9468,-0.9481,-0.9495,-0.9502,-0.9543,-0.9524,-0.9525,-0.9536,-0.9535,-0.955,-0.9551,-0.9553,-0.9583,-0.9589,-0.9606,-0.9577,-0.9661,-0.9663,-0.9665,-0.9683,-0.9688,-0.9691,0,0,0,0,0,-0.9458,-0.9485,-0.9482,-0.9488,-0.9519,-0.9544,-0.9548,-0.9549,-0.9538,-0.9551,-0.9557,-0.9551,-0.9601,-0.9586,-0.9592,-0.961,-0.966,-0.9662,-0.9665,-0.9681,-0.9687,-0.9691,0,0,0,0,0,0,-0.9473,-0.9487,-0.9483,-0.9516,-0.9529,-0.9542,-0.9559,-0.9554,-0.9571,-0.9568,-0.9569,-0.9573,-0.9602,-0.9609,-0.9593,-0.9644,-0.9628,-0.9632,-0.9639,-0.9644,-0.9648,-0.9646,-0.9578,0,0,0,0,0,-0.948,-0.9499,-0.951,-0.9538,-0.9545,-0.9551,-0.9561,-0.9561,-0.9575,-0.958,-0.9588,-0.9602,-0.962,-0.9632,-0.965,-0.9684,-0.9687,-0.9699,-0.9703,-0.9707,-0.971,-0.9729,-0.9735,-0.9675,-0.9675,-0.9675,0,0,-0.9494,-0.9504,-0.9517,-0.9541,-0.9551,-0.9571,-0.9555,-0.9577,-0.9592,-0.9583,-0.9611,-0.9618,-0.9632,-0.9664,-0.9678,-0.967,-0.9727,-0.971,-0.9712,-0.9714,-0.9733,-0.9738,-0.9743,-0.9676,-0.9676,-0.9676,0,0,-0.9531,-0.9541,-0.9565,-0.9575,-0.9591,-0.9594,-0.96,-0.9614,-0.9618,-0.9646,-0.964,-0.9658,-0.969,-0.9701,-0.971,-0.9752,-0.9746,-0.9757,-0.9778,-0.9797,-0.9802,-0.9806,-0.9821,-0.9827,-0.9761,-0.9761,-0.9761,0,-0.9547,-0.9577,-0.9578,-0.96,-0.9611,-0.9605,-0.9629,-0.9639,-0.9659,-0.9667,-0.9658,-0.9698,-0.9708,-0.9742,-0.9752,-0.976,-0.9767,-0.9756,-0.9801,-0.9805,-0.9809,-0.9824,-0.983,-0.9762,-0.9762,-0.9762,-0.9761,0,-0.9597,-0.9618,-0.9635,-0.9655,-0.9668,-0.9692,-0.9696,-0.9709,-0.9708,-0.9713,-0.9741,-0.9752,-0.9772,-0.978,-0.9779,-0.9814,-0.9809,-0.9801,-0.9785,-0.9816,-0.983,-0.9836,-0.9764,-0.9763,-0.9763,-0.9763,0,0,-0.9644,-0.9664,-0.9671,-0.968,-0.9696,-0.9713,-0.9736,-0.9755,-0.9767,-0.9781,-0.9801,-0.9828,-0.982,-0.9831,-0.9831,-0.9847,-0.988,-0.9837,-0.9837,-0.9845,-0.9921,-0.9928,-0.9934,-0.9876,-0.9877,-0.9878,-0.992,0,-0.9683,-0.9724,-0.9725,-0.9762,-0.9782,-0.9776,-0.9796,-0.9808,-0.9813,-0.9831,-0.9836,-0.9856,-0.9844,-0.985,-0.9866,-0.9873,-0.9895,-0.987,-0.9895,-0.9896,-0.9893,-0.9941,-0.9949,-0.9987,-0.9925,-0.9926,-0.9927,0,-0.9734,-0.975,-0.9789,-0.9803,-0.9812,-0.983,-0.9848,-0.9865,-0.9878,-0.9881,-0.9894,-0.9891,-0.9915,-0.9898,-0.9931,-0.9913,-0.9924,-0.9928,-0.993,-0.9933,-0.9914,-0.9946,-1.0,-1.0006,-0.9935,-0.9934,-0.9934,0,-0.9765,-0.9796,-0.9824,-0.9832,-0.9849,-0.9862,-0.987,-0.9883,-0.9895,-0.9911,-0.9918,-0.9937,-0.9947,-0.9961,-0.9964,-0.9951,-0.9998,-0.998,-1.0001,-1.0001,-1.0011,-1.0011,-1.0068,-1.0017,-1.0017,-1.0017,-1.0017,0,-0.9809,-0.9833,-0.9839,-0.9856,-0.9884,-0.9885,-0.9912,-0.9918,-0.993,-0.9948,-0.9944,-0.9961,-0.9963,-0.9982,-0.9984,-1.0011,-1.0016,-1.0019,-1.0019,-1.002,-1.0019,-1.0027,-1.0025,-1.0018,-1.0018,-1.0018,-1.0017,0,-0.9849,-0.9853,-0.9883,-0.9897,-0.9901,-0.9921,-0.9932,-0.9949,-0.9953,-0.9977,-0.9983,-0.999,-1.0011,-1.0015,-1.004,-1.0041,-1.0074,-1.0071,-1.007,-1.007,-1.009,-1.0089,-1.0155,-1.0164,-1.0106,-1.0107,-1.0107,0,-0.9877,-0.9896,-0.9911,-0.9924,-0.9932,-0.9951,-0.9964,-0.9965,-0.9978,-0.9996,-1.001,-1.0031,-1.0048,-1.0082,-1.0089,-1.0108,-1.0106,-1.0128,-1.0109,-1.0109,-1.0108,-1.0107,-1.0109,-1.0132,-1.0133,-1.0133,-1.0134,0,-0.9926,-0.9928,-0.9945,-0.9964,-0.9979,-0.9994,-1.0008,-1.0018,-1.0022,-1.0037,-1.0058,-1.0071,-1.0097,-1.0117,-1.0137,-1.0144,-1.014,-1.014,-1.0145,-1.0147,-1.0145,-1.0147,-1.0081,-1.0138,-1.0138,-1.0137,-1.0137,-1.0137,-0.9961,-0.9978,-0.9992,-1.0012,-1.0023,-1.0037,-1.0053,-1.006,-1.0078,-1.0099,-1.0099,-1.0123,-1.0136,-1.0161,-1.017,-1.0189,-1.0182,-1.0191,-1.0193,-1.0195,-1.0198,-1.0141,-1.0193,-1.0192,-1.0192,-1.0192,-1.0192,0,-1.0011,-1.002,-1.0039,-1.0059,-1.0075,-1.0069,-1.0084,-1.0098,-1.0119,-1.0132,-1.0149,-1.0174,-1.0194,-1.0203,-1.0223,-1.0237,-1.0235,-1.0242,-1.0241,-1.0244,-1.0202,-1.0196,-1.0243,-1.0243,-1.0243,-1.0243,-1.0243,-1.0243,-1.0039,-1.0068,-1.0071,-1.0104,-1.0113,-1.0136,-1.0146,-1.0158,-1.0169,-1.0197,-1.0214,-1.022,-1.0231,-1.0252,-1.0271,-1.0273,-1.0281,-1.0289,-1.029,-1.0251,-1.0246,-1.0241,-1.0235,-1.029,-1.029,-1.033,-1.033,-1.033]}]]